Home   Weather   Memphis   Past weeks

Flag for USA Past Weather in Memphis, Tennessee, USA — Yesterday and Last 2 Weeks

Now
88 °F

Scattered clouds.


Feels Like: 93 °F
Forecast: 72 / 87 °F
Wind: 22 mph from South

Location: Memphis International Airport

Current Time: Apr 29, 2017 at 4:41:37 pm

Latest Report: Apr 29, 2017 at 3:54 pm


Visibility: 10 mi

Pressure: 29.80 "Hg

Humidity: 55%

Dew Point: 70 °F

Location of MemphisLocation

Past Weather in Memphis — Graph

°F

Memphis Temperature Yesterday

Maximum temperature yesterday: 84 °F (at 3:54 pm)
Minimum temperature yesterday: 58 °F (at 1:54 am)
Average temperature yesterday: 72 °F

High & Low Weather Summary for the Past Weeks

 TemperatureHumidityPressure
High86 °F (Apr 14, 2:54 pm)100% (Apr 18, 1:18 am)30.19 "Hg (Apr 18, 1:18 am)
Low49 °F (Apr 24, 2:54 am)33% (Apr 14, 2:54 pm)29.46 "Hg (Apr 26, 6:54 pm)
Average68 °F77%29.92 "Hg
* Reported Apr 14 1:54 pm — Apr 29 1:54 pm, Memphis, Weather by CustomWeather, © 2017

Note: Actual official high and low records may vary slightly from our data, if they occured in-between our weather recording intervals... More about our weather records

Advertising

Memphis Weather History for the Previous 24 Hours

Scroll right to see more
 ConditionsComfort  
Time TempWeatherWind HumidityBarometerVisibility
1:54 pm
Sat, Apr 29
85 °FBroken clouds.21 mph59%29.84 "Hg10 mi
1:32 pm85 °FPartly sunny.18 mph59%29.86 "Hg10 mi
12:54 pm84 °FPartly sunny.23 mph63%29.84 "Hg10 mi
12:03 pm82 °FBroken clouds.20 mph67%29.88 "Hg10 mi
11:54 am84 °FPartly sunny.16 mph65%29.87 "Hg10 mi
10:54 am81 °FPartly sunny.23 mph69%29.88 "Hg10 mi
9:54 am79 °FPartly sunny.18 mph74%29.88 "Hg10 mi
9:32 am78 °FMostly cloudy.15 mph76%29.89 "Hg10 mi
8:54 am77 °FPartly sunny.16 mph79%29.87 "Hg10 mi
7:54 am75 °FPartly sunny.14 mph82%29.85 "Hg10 mi
6:54 am75 °FPartly sunny.10 mph82%29.85 "Hg10 mi
5:54 am75 °FPartly sunny.12 mph82%29.84 "Hg10 mi
4:54 am77 °FPassing clouds.13 mph77%29.83 "Hg10 mi
3:54 am77 °FOvercast.16 mph79%29.80 "Hg10 mi
3:35 am76 °FMostly cloudy.16 mph82%29.81 "Hg10 mi
1:54 am76 °FPassing clouds.20 mph82%29.79 "Hg10 mi
12:54 am77 °FClear.16 mph79%29.79 "Hg10 mi
11:54 pm
Fri, Apr 28
78 °FPassing clouds.15 mph76%29.83 "Hg10 mi
10:54 pm79 °FPartly cloudy.18 mph74%29.84 "Hg10 mi
9:54 pm79 °FClear.12 mph74%29.83 "Hg10 mi
8:54 pm80 °FPassing clouds.9 mph74%29.80 "Hg10 mi
7:54 pm81 °FPassing clouds.12 mph74%29.78 "Hg10 mi
6:54 pm82 °FPartly cloudy.9 mph74%29.77 "Hg10 mi
5:54 pm83 °FScattered clouds.10 mph72%29.77 "Hg10 mi
4:54 pm83 °FBroken clouds.18 mph72%29.76 "Hg10 mi
Weather by CustomWeather, © 2017

See weather overviewHow to use our weather pages